Theta_e
309 309 309 308 308 308 308 307 307 307 306 306 305 305 302 302 301 304 304 303 300 298 295 295 295 295 296 294 297 298 296 297 300 302 300 297 295 295 296 296 298 299 299 299 299
308 308 308 308 308 308 307 307 307 306 306 306 303 302 302 300 304 306 307 303 299 297 296 295 293 293 291 293 293 296 295 298 299 298 295 295 295 295 295 294 295 294 295 297 297
308 308 308 308 308 307 307 306 306 306 306 305 302 301 302 303 298 304 303 301 300 297 296 295 294 293 292 292 293 294 295 295 295 295 295 295 294 294 294 294 294 294 295 295 295
308 308 307 307 307 306 306 305 305 305 305 304 301 301 301 301 296 304 300 298 299 295 295 294 292 292 291 292 293 293 294 294 294 294 294 294 294 294 293 294 294 294 294 294 294
308 307 306 305 305 304 305 305 304 304 304 302 300 301 301 296 297 301 300 298 297 296 294 293 292 292 293 293 293 293 293 293 294 294 293 294 294 294 294 294 293 293 294 293 294
308 307 306 304 302 300 302 303 303 303 302 300 300 301 298 296 297 299 299 297 296 294 294 294 293 293 293 293 293 292 293 293 293 294 294 295 295 295 294 294 293 293 293 292 292
307 306 306 301 297 298 298 298 300 303 299 300 301 301 296 295 297 295 294 294 294 295 294 294 294 293 293 293 293 293 294 293 294 295 295 295 295 295 294 293 293 294 293 293 293
306 305 304 298 297 299 297 302 302 300 301 302 302 299 297 295 294 295 294 294 294 293 293 293 294 292 293 293 292 293 293 293 294 294 295 295 295 294 293 293 293 293 293 292 290
307 305 302 297 299 298 297 298 297 299 304 303 301 297 297 295 295 294 294 293 293 294 293 293 293 292 292 289 288 290 291 293 295 295 295 295 294 294 293 293 294 293 287 286 286
307 306 300 297 297 300 298 298 303 303 302 300 299 295 294 294 294 294 294 294 293 293 293 293 291 287 287 287 288 292 289 294 294 294 294 293 294 294 289 290 289 286 285 284 284
306 306 302 297 296 299 300 300 295 294 298 294 294 294 294 294 294 294 293 293 292 291 291 290 287 287 290 292 292 294 293 293 293 292 291 292 292 292 287 286 285 285 284 283 283
306 306 302 297 296 296 297 296 295 295 294 295 294 294 294 294 294 294 293 292 292 292 291 288 287 291 292 293 294 294 292 290 291 292 293 292 291 290 287 286 285 285 283 283 282
305 306 302 297 296 296 296 296 296 297 293 295 294 294 294 294 294 293 293 292 292 292 291 287 291 292 293 293 291 291 290 289 292 292 290 290 289 291 288 286 286 284 284 283 282
305 306 299 297 296 295 294 295 295 297 294 295 294 294 294 293 294 293 293 292 292 293 291 290 291 293 292 292 290 287 292 292 292 290 287 289 286 289 288 288 284 283 282 282 281
305 303 298 297 296 295 294 295 297 296 303 296 294 294 294 294 292 292 292 292 292 292 288 290 290 291 291 293 291 290 291 290 288 287 285 288 285 286 283 284 283 282 282 281 281
305 301 297 296 296 294 295 296 296 299 303 295 293 293 294 293 293 291 292 291 291 291 290 290 289 290 289 292 292 289 283 281 281 283 282 286 283 287 281 280 282 282 280 281 280
305 300 297 297 296 294 296 295 300 303 295 296 294 293 293 293 293 291 291 290 290 288 288 289 290 291 291 289 290 282 279 281 282 279 286 289 283 285 279 277 279 280 280 278 276
304 299 298 298 295 295 296 295 302 304 294 293 294 293 293 293 292 291 291 289 288 284 283 288 290 290 291 285 285 280 280 281 281 280 284 286 284 284 276 277 278 280 278 277 277
303 298 298 297 294 296 294 298 306 299 295 294 293 294 293 292 291 291 289 288 287 284 288 284 288 289 289 287 287 281 282 280 278 278 283 279 280 282 279 278 278 276 278 276 275
302 298 297 296 295 296 295 304 300 294 293 294 302 294 292 292 291 288 290 287 290 286 279 284 286 288 289 288 285 284 283 282 278 280 283 279 279 285 280 281 280 276 274 273 273
301 298 296 295 296 293 298 298 297 293 294 295 295 293 293 291 291 290 292 290 290 287 283 279 283 288 289 288 283 284 281 276 277 281 281 281 283 279 281 280 279 276 273 271 271
297 300 295 295 297 294 294 296 297 294 292 293 293 293 292 292 291 291 292 291 289 286 288 284 282 284 286 279 278 277 281 281 284 279 276 280 284 277 277 277 276 275 274 271 270
298 296 296 295 298 297 297 298 297 295 293 294 294 293 292 292 295 292 292 291 289 289 287 286 285 286 287 282 283 283 278 278 275 271 276 282 286 275 273 275 276 276 273 271 271
298 298 297 293 293 296 295 300 301 296 295 294 294 293 291 292 292 295 291 292 289 290 292 291 284 289 296 291 281 283 282 280 285 281 284 286 287 283 276 276 274 273 272 269 268
299 301 298 299 298 295 297 300 301 300 295 293 294 294 294 295 293 293 293 291 290 291 293 291 291 287 289 289 284 286 288 284 284 286 286 288 285 286 280 280 277 274 272 273 272
301 300 295 294 296 297 299 299 301 302 297 297 296 296 295 298 297 298 295 294 293 290 292 292 293 289 290 289 289 290 290 289 288 285 286 287 287 287 278 266 270 272 273 275 275
302 300 300 303 298 299 301 302 302 302 301 302 298 299 296 296 297 298 299 295 295 291 292 292 292 292 292 276 279 286 285 288 288 288 286 287 287 276 272 274 274 272 273 274 274
Wind_Speed
7 6 6 6 5 5 5 6 6 7 7 7 8 9 10 13 12 14 15 9 9 9 9 10 14 9 7 4 5 3 4 2 2 2 4 5 8 5 4 6 4 5 9 16 31
7 6 6 5 5 6 6 6 6 6 6 6 7 10 12 13 18 12 9 8 8 9 11 12 6 7 4 3 3 4 4 8 5 3 5 6 3 8 5 12 14 16 10 21 26
8 7 5 5 5 5 5 5 5 5 5 5 7 9 14 13 4 2 6 6 5 6 7 4 4 3 4 3 3 2 4 3 3 3 3 5 5 6 5 13 15 13 20 19 19
8 8 7 6 5 4 3 3 4 5 5 5 8 10 11 4 3 4 3 4 3 4 7 5 4 4 4 3 3 2 1 2 3 1 3 8 7 8 10 21 17 16 20 17 14
9 9 8 6 5 3 2 4 5 5 6 6 9 10 7 4 2 6 3 1 3 4 4 2 4 3 2 2 1 2 3 4 2 8 8 8 14 13 14 15 14 16 16 14 12
10 10 9 7 5 2 2 4 6 7 7 9 11 10 3 3 3 5 3 4 3 0 2 2 3 3 3 2 2 3 2 7 6 9 5 6 9 1 6 5 10 10 11 9 9
12 10 10 6 5 3 3 5 8 10 10 11 10 5 4 4 5 2 2 4 3 2 2 3 5 3 3 1 2 3 4 6 3 1 4 1 9 6 8 7 10 13 10 9 9
14 12 9 5 6 7 10 12 13 12 12 11 7 3 2 8 4 3 2 0 3 3 2 3 5 4 2 0 5 5 3 4 4 4 5 3 11 9 9 6 12 14 14 9 12
14 12 9 3 6 9 11 12 13 13 11 8 3 3 1 5 3 2 1 4 4 4 4 8 4 3 4 4 4 6 3 2 7 2 3 5 13 13 11 12 15 8 9 10 11
15 12 8 2 5 10 11 14 14 12 8 4 3 3 0 4 3 3 0 5 5 4 4 5 4 3 3 4 2 4 3 5 9 4 11 18 21 18 10 8 6 6 8 9 11
15 12 7 1 4 10 15 12 5 3 1 4 2 2 3 3 3 3 1 4 3 7 3 3 4 3 5 5 4 2 4 7 13 15 7 10 18 19 3 7 8 8 8 8 9
16 13 5 2 2 11 11 3 3 2 1 2 1 1 2 3 1 2 1 3 3 2 2 4 3 5 3 2 3 4 6 7 10 3 11 17 24 11 4 2 2 7 8 10 12
17 13 3 5 4 6 8 3 3 3 3 3 3 3 3 5 2 3 3 2 2 3 2 4 1 4 2 1 2 3 4 4 8 10 8 11 8 2 2 3 2 5 5 7 9
18 11 1 7 4 3 2 5 6 2 3 4 3 2 3 3 2 3 3 3 1 2 3 4 1 4 3 4 5 2 2 6 14 10 3 8 6 5 3 6 2 6 7 7 9
17 6 1 9 1 3 2 7 7 1 3 4 2 2 2 2 3 1 1 2 3 3 5 4 5 4 3 4 4 7 4 7 4 3 4 3 1 6 3 5 4 5 8 8 8
17 3 3 5 3 2 8 9 3 4 6 4 3 3 2 2 2 3 2 5 2 1 2 6 1 3 5 2 2 3 5 6 4 2 2 4 4 5 4 6 4 5 6 8 10
17 2 3 2 1 10 11 4 3 3 4 5 4 4 1 4 3 5 3 2 4 3 2 3 3 2 2 2 2 7 6 4 6 4 5 3 2 10 6 7 6 8 10 6 6
16 6 5 1 5 14 6 3 2 2 6 3 3 3 5 7 3 4 2 3 3 5 2 2 5 6 3 5 5 2 6 4 5 3 4 1 7 6 7 6 6 7 8 8 7
13 6 4 7 13 13 4 2 7 5 5 8 2 3 3 3 3 3 7 6 7 9 9 4 5 3 2 3 5 3 1 3 2 1 1 3 8 8 2 6 7 7 6 8 7
6 2 2 13 15 5 3 6 4 2 6 2 7 6 6 6 3 3 5 5 4 7 2 5 3 3 4 3 4 5 5 4 2 3 6 5 6 9 5 11 10 8 7 7 6
1 2 3 14 10 3 4 7 5 4 5 5 6 4 6 6 7 5 4 2 4 6 4 5 3 2 4 7 9 3 1 4 3 3 4 4 7 7 9 11 10 8 7 7 7
3 0 10 16 1 2 2 5 1 4 2 2 2 7 9 8 7 6 8 5 8 11 8 6 4 3 9 3 3 4 7 7 4 6 4 1 9 2 4 6 6 7 7 5 5
1 2 6 3 4 4 4 4 3 5 5 6 6 7 3 7 3 8 4 2 12 11 11 9 3 2 5 4 2 4 5 4 4 3 8 4 8 0 2 4 6 7 6 7 5
2 1 1 2 1 3 2 5 5 4 4 5 3 4 4 5 6 4 5 5 11 11 12 14 6 8 11 5 5 5 7 9 12 4 8 21 23 14 7 11 8 9 7 7 6
2 5 3 4 6 6 6 5 5 5 5 7 4 12 8 7 3 7 9 3 7 13 11 9 7 11 19 17 7 8 11 15 19 27 13 30 16 25 7 9 12 11 6 7 6
4 3 2 2 2 7 9 6 11 8 8 7 11 11 15 11 14 8 8 8 6 11 15 6 5 4 11 11 16 21 21 24 27 26 25 30 31 25 8 1 4 8 7 8 5
9 4 2 4 3 4 6 11 12 7 9 16 15 10 15 27 19 20 11 7 7 11 17 7 5 4 8 1 4 10 23 29 16 17 21 20 28 4 5 8 9 9 9 7 5
Wind_Direction
53 55 60 65 68 75 81 85 85 83 82 82 91 96 101 113 99 74 55 75 56 56 46 35 34 24 49 46 54 92 70 135 195 169 269 319 341 319 284 255 271 258 287 287 300
45 47 51 55 66 75 84 86 90 92 88 87 112 115 119 112 94 67 92 68 57 47 36 34 13 14 44 23 24 83 108 193 182 160 266 286 293 301 301 297 285 296 272 291 303
27 30 36 47 61 78 85 90 98 106 101 106 129 137 142 143 79 28 75 62 44 29 38 20 21 49 74 28 23 102 159 180 228 229 319 279 284 238 276 279 261 272 286 293 297
19 22 33 39 51 75 96 109 115 122 124 132 144 148 158 177 108 164 101 53 48 46 12 17 22 42 51 54 343 53 264 187 256 119 312 285 271 273 235 261 272 274 280 289 290
16 15 22 26 35 46 148 154 141 138 144 148 151 146 139 55 137 158 178 263 340 334 43 67 51 80 122 130 344 142 255 280 250 283 270 267 269 265 271 276 277 274 282 279 284
18 10 11 18 25 41 149 164 173 159 158 152 154 149 129 102 140 172 227 270 279 55 117 127 151 161 122 169 159 201 242 285 282 283 260 280 278 174 269 275 296 284 282 282 286
14 14 6 23 26 46 117 133 145 149 149 149 151 146 76 159 149 176 260 122 78 178 163 213 164 107 130 58 302 303 324 303 282 218 285 13 288 226 264 294 285 292 296 309 316
16 15 9 33 63 87 109 113 122 134 139 142 149 131 128 158 116 143 94 0 316 334 208 172 152 90 88 185 18 351 68 23 276 292 267 141 266 276 297 296 285 289 290 351 32
11 8 10 42 90 103 116 118 120 126 128 145 140 100 191 178 236 177 86 342 49 44 110 110 93 86 48 77 14 6 292 267 310 212 262 179 288 289 300 303 291 308 21 7 8
9 5 6 37 115 117 120 121 116 122 127 101 84 52 284 216 173 170 112 77 86 118 68 45 47 68 40 71 261 280 325 275 278 278 283 288 277 285 1 335 353 11 11 9 8
2 356 351 337 144 151 133 120 51 353 222 191 190 143 132 149 161 165 51 107 84 56 61 26 74 189 218 195 207 256 249 256 281 285 292 268 287 288 45 27 9 10 5 4 4
357 347 340 221 150 176 178 142 200 161 165 217 160 57 138 157 136 217 156 89 69 105 90 26 204 206 173 235 194 234 283 275 286 254 318 298 295 295 96 81 26 3 358 358 352
354 341 316 199 142 179 214 219 196 154 111 215 205 183 190 159 220 211 124 116 111 155 149 161 259 131 188 263 333 222 208 265 271 316 273 312 303 202 184 156 10 10 353 360 354
352 342 306 179 201 180 231 213 179 113 64 188 221 257 117 106 286 163 111 127 139 210 183 232 156 180 184 236 132 318 207 301 303 349 304 59 287 266 248 264 315 333 339 351 349
350 348 156 183 200 186 176 150 142 72 359 143 178 137 115 186 102 174 93 69 203 181 93 257 170 209 202 214 139 235 338 297 325 268 19 343 52 264 0 285 277 315 337 331 343
351 334 175 174 219 183 151 144 89 55 259 185 131 168 164 182 215 105 139 58 69 169 216 249 356 219 215 116 149 3 2 38 45 82 1 225 134 259 198 209 281 289 301 311 328
347 224 190 198 262 154 146 95 33 160 32 190 196 169 143 204 218 178 172 184 193 50 272 288 205 183 182 103 103 58 44 337 350 6 234 173 355 254 219 209 219 272 293 292 299
342 187 189 209 156 151 135 60 144 210 199 93 108 121 211 163 225 170 140 264 195 95 105 171 295 171 164 165 167 137 142 153 258 260 271 329 239 253 214 198 218 253 274 301 310
335 200 201 177 160 158 85 87 220 203 152 148 107 160 223 196 156 179 217 208 201 172 174 135 269 125 96 130 125 225 120 186 109 246 10 259 286 278 196 260 257 255 266 284 296
333 233 214 170 163 134 91 239 239 145 129 168 187 169 213 189 167 158 202 200 194 181 161 192 324 178 130 115 51 148 145 66 10 315 280 273 274 241 248 245 244 263 271 281 286
4 30 148 160 153 60 198 226 243 196 151 177 194 173 213 193 189 208 236 248 175 139 95 140 115 273 113 202 176 138 191 40 128 162 215 292 251 213 210 210 209 234 255 264 278
91 318 158 156 126 217 216 210 176 176 138 237 164 197 190 182 201 229 224 226 153 148 169 202 142 228 221 254 150 162 186 153 163 232 229 289 270 300 218 194 181 236 261 269 244
178 209 170 188 217 224 263 268 236 161 196 183 216 212 151 192 228 200 205 200 159 166 167 182 193 324 305 1 26 208 199 151 121 80 199 162 260 180 347 234 230 242 256 272 281
133 292 200 191 247 195 188 241 241 202 197 187 188 132 146 216 235 256 228 209 188 200 178 161 180 195 237 199 137 192 193 198 199 196 223 228 261 253 236 239 238 239 241 250 260
175 234 212 191 232 205 172 208 201 221 211 192 224 209 174 207 223 228 217 217 202 216 199 181 237 222 249 260 211 214 219 204 211 227 223 261 240 263 245 238 229 222 208 234 242
192 200 172 260 194 181 204 217 211 230 163 214 228 211 199 216 200 205 195 191 197 189 199 207 254 194 266 233 234 250 238 238 231 237 241 254 268 268 297 128 186 196 203 226 224
217 223 156 194 186 178 209 220 225 191 222 230 218 230 203 225 218 232 227 200 189 172 195 195 213 180 262 32 313 265 228 229 237 230 221 238 246 200 236 221 216 204 206 216 226